Weather History for PHLI - March, 2014

Change the Weather History Date:

Tuesday, March 25, 2014

  Actual Average Record
Temperature  
Mean Temperature 72 °F 73 °F  
Max Temperature 78 °F 79 °F 83 °F (1961)
Min Temperature 65 °F 68 °F 51 °F (1955)
Degree Days  
Heating Degree Days 0 0  
Month to date heating degree days 0 0  
Since 1 July heating degree days 0 0  
Cooling Degree Days 7 8  
Month to date cooling degree days 159 188  
Year to date cooling degree days 535 583  
Growing Degree Days 21 (Base 50)    
Moisture  
Dew Point 67 °F    
Average Humidity 80    
Maximum Humidity 93    
Minimum Humidity 66    
Precipitation  
Precipitation 0.03 in 0.16 in 3.06 in (2002)
Month to date precipitation 1.83 3.76  
Year to date precipitation 12.23 10.67  
Snow  
Snow 0.00 in - - ()
Month to date snowfall 0.0  
Since 1 July snowfall 0.0  
Snow Depth 0.00 in    
Sea Level Pressure  
Sea Level Pressure 30.15 in    
Wind  
Wind Speed 12 mph (NE)    
Max Wind Speed 20 mph    
Max Gust Speed 31 mph    
Visibility 9 miles    
Events Rain    
T = Trace of Precipitation, MM = Missing Value Source: NWS Daily Summary

Daily Weather History Graph

Daily Weather History Graph

Search for Another Location

Airport or City:

Trip Planner

Search our weather history database for the weather conditions in past years. The results will help you decide how hot, cold, wet, or windy it might be!

Date:

Astronomy

Mar. 25, 2014 Rise Set
Actual Time 6:36 AM HST 6:50 PM HST
Civil Twilight 6:14 AM HST 7:12 PM HST
Nautical Twilight 5:48 AM HST 7:38 PM HST
Astronomical Twilight 5:22 AM HST 8:04 PM HST
Moon 2:33 AM HST (3/25) 2:06 PM HST (3/25)
Length of Visible Light 12h 58m
Length of Day
12h 13m
Waning Crescent, 29% of the Moon is Illuminated
Mar 25
Waning Crescent
Mar 30
New
Apr 6
First Quarter
Apr 14
Full
Apr 21
Last Quarter

Hourly Weather History & Observations

Time (HST) Temp. Dew Point Humidity Pressure Visibility Wind Dir Wind Speed Gust Speed Precip Events Conditions
12:00 AM 71.6 °F 62.6 °F 73% 30.20 in 10.0 mi NE 12.7 mph - N/A   Partly Cloudy
12:53 AM 72.0 °F 63.0 °F 73% 30.19 in 10.0 mi ENE 16.1 mph - N/A   Scattered Clouds
1:53 AM 71.1 °F 61.0 °F 70% 30.17 in 10.0 mi ENE 18.4 mph - N/A   Scattered Clouds
2:53 AM 71.1 °F 59.0 °F 66% 30.15 in 10.0 mi ENE 13.8 mph - N/A   Clear
3:13 AM 71.6 °F 60.8 °F 69% 30.15 in 10.0 mi ENE 15.0 mph - N/A   Scattered Clouds
3:53 AM 71.1 °F 59.0 °F 66% 30.14 in 10.0 mi ENE 13.8 mph - N/A   Scattered Clouds
4:36 AM 69.8 °F 59.0 °F 68% 30.14 in 10.0 mi NE 11.5 mph - N/A   Mostly Cloudy
4:53 AM 70.0 °F 59.0 °F 68% 30.14 in 10.0 mi NE 12.7 mph - N/A   Partly Cloudy
5:53 AM 70.0 °F 59.0 °F 68% 30.15 in 10.0 mi NNE 10.4 mph - N/A   Partly Cloudy
6:53 AM 66.0 °F 59.0 °F 78% 30.16 in 10.0 mi NW 4.6 mph - N/A   Mostly Cloudy
7:32 AM 69.8 °F 62.6 °F 78% 30.17 in 10.0 mi North 6.9 mph - N/A   Mostly Cloudy
7:53 AM 71.1 °F 64.0 °F 78% 30.18 in 10.0 mi NE 10.4 mph - N/A   Overcast
8:53 AM 73.0 °F 68.0 °F 84% 30.19 in 10.0 mi NNE 10.4 mph - 0.00 in   Overcast
9:42 AM 73.4 °F 69.8 °F 88% 30.20 in 3.0 mi NNE 11.5 mph - 0.01 in Rain Light Rain
9:53 AM 73.9 °F 71.1 °F 91% 30.19 in 10.0 mi NNE 8.1 mph - 0.01 in   Overcast
10:00 AM 73.4 °F 69.8 °F 88% 30.19 in 10.0 mi NNE 9.2 mph - N/A   Overcast
10:20 AM 71.6 °F 69.8 °F 94% 30.19 in 3.0 mi NNE 6.9 mph - 0.02 in Rain Heavy Rain
10:31 AM 73.4 °F 71.6 °F 94% 30.19 in 3.0 mi NNE 8.1 mph - 0.02 in Rain Light Rain
10:38 AM 73.4 °F 71.6 °F 94% 30.18 in 3.0 mi NNE 8.1 mph - 0.02 in   Mostly Cloudy
10:53 AM 72.0 °F 69.1 °F 91% 30.18 in 5.0 mi NNE 9.2 mph - 0.02 in Rain Light Rain
11:53 AM 75.0 °F 70.0 °F 84% 30.16 in 10.0 mi North 8.1 mph - 0.00 in   Overcast
12:53 PM 75.9 °F 69.1 °F 79% 30.13 in 10.0 mi NE 13.8 mph - N/A   Overcast
1:04 PM 75.2 °F 69.8 °F 83% 30.13 in 10.0 mi ENE 12.7 mph - N/A   Overcast
1:24 PM 75.2 °F 69.8 °F 83% 30.12 in 10.0 mi ENE 13.8 mph - N/A   Overcast
1:53 PM 77.0 °F 70.0 °F 79% 30.10 in 10.0 mi ENE 12.7 mph - N/A   Overcast
2:38 PM 78.8 °F 69.8 °F 74% 30.09 in 10.0 mi ENE 10.4 mph - N/A   Scattered Clouds
2:53 PM 75.9 °F 69.1 °F 79% 30.09 in 10.0 mi ENE 15.0 mph - N/A   Mostly Cloudy
3:00 PM 77.0 °F 69.8 °F 78% 30.09 in 10.0 mi NE 10.4 mph - N/A   Mostly Cloudy
3:08 PM 75.2 °F 69.8 °F 83% 30.09 in 10.0 mi NE 12.7 mph - N/A   Overcast
3:20 PM 75.2 °F 69.8 °F 83% 30.09 in 10.0 mi NE 12.7 mph - N/A   Mostly Cloudy
3:51 PM 75.2 °F 69.8 °F 83% 30.09 in 8.0 mi NE 12.7 mph 20.7 mph N/A   Mostly Cloudy
3:53 PM 75.0 °F 70.0 °F 84% 30.09 in 8.0 mi NE 12.7 mph 20.7 mph N/A   Overcast
4:30 PM 75.2 °F 69.8 °F 83% 30.09 in 10.0 mi NE 12.7 mph - N/A   Overcast
4:53 PM 75.0 °F 68.0 °F 79% 30.09 in 10.0 mi NE 11.5 mph - N/A   Mostly Cloudy
5:53 PM 75.0 °F 69.1 °F 82% 30.10 in 10.0 mi NE 12.7 mph - N/A   Overcast
6:17 PM 73.4 °F 68.0 °F 83% 30.11 in 10.0 mi NE 13.8 mph - N/A   Overcast
6:41 PM 73.4 °F 68.0 °F 83% 30.12 in 10.0 mi NE 13.8 mph - N/A   Overcast
6:53 PM 73.9 °F 69.1 °F 85% 30.12 in 10.0 mi NE 13.8 mph - N/A   Overcast
7:53 PM 73.9 °F 69.1 °F 85% 30.13 in 10.0 mi ENE 13.8 mph - N/A   Overcast
8:05 PM 73.4 °F 69.8 °F 88% 30.14 in 10.0 mi ENE 12.7 mph - N/A   Overcast
8:53 PM 73.0 °F 69.1 °F 87% 30.15 in 10.0 mi NE 12.7 mph - N/A   Mostly Cloudy
9:53 PM 73.0 °F 69.1 °F 87% 30.17 in 10.0 mi NE 9.2 mph - N/A   Mostly Cloudy
10:41 PM 73.4 °F 68.0 °F 83% 30.18 in 10.0 mi ENE 10.4 mph - N/A   Scattered Clouds
10:51 PM 73.4 °F 69.8 °F 88% 30.18 in 10.0 mi ENE 12.7 mph - N/A   Mostly Cloudy
10:53 PM 73.0 °F 69.1 °F 87% 30.17 in 10.0 mi NE 10.4 mph - N/A   Scattered Clouds
11:09 PM 73.4 °F 69.8 °F 88% 30.18 in 10.0 mi NE 11.5 mph - N/A   Mostly Cloudy
11:48 PM 73.4 °F 68.0 °F 83% 30.17 in 10.0 mi ENE 11.5 mph - N/A   Scattered Clouds
11:53 PM 73.0 °F 68.0 °F 84% 30.17 in 10.0 mi ENE 12.7 mph - N/A   Partly Cloudy